Weather History for Santa Fe, NM

Change the Weather History Date:

Wednesday, April 17, 2013

  Actual Average Record
Temperature  
Mean Temperature 46 °F -  
Max Temperature 59 °F 0 °F 78 °F (2011)
Min Temperature 33 °F - 26 °F (1998)
Degree Days  
Heating Degree Days 19    
Moisture  
Dew Point 23 °F    
Average Humidity 49    
Maximum Humidity 93    
Minimum Humidity 15    
Precipitation  
Precipitation 0.01 in - - ()
Sea Level Pressure  
Sea Level Pressure 29.63 in    
Wind  
Wind Speed 11 mph (West)    
Max Wind Speed 21 mph    
Max Gust Speed 34 mph    
Visibility 10 miles    
Events Rain , Snow    
Averages and records for this station are not official NWS values.
T = Trace of Precipitation, MM = Missing Value Source: NWS Daily Summary

Daily Weather History Graph

Daily Weather History Graph

Search for Another Location

Airport:

Trip Planner

Search our weather history database for the weather conditions in past years. The results will help you decide how hot, cold, wet, or windy it might be!

Date:

Astronomy

Apr. 17, 2013 Rise Set
Actual Time 6:28 AM MDT 7:39 PM MDT
Civil Twilight 6:02 AM MDT 8:05 PM MDT
Nautical Twilight 5:30 AM MDT 8:37 PM MDT
Astronomical Twilight 4:58 AM MDT 9:10 PM MDT
Moon 11:49 AM MDT (4/17) 1:14 AM MDT (4/17)
Length of Visible Light 14h 03m
Length of Day
13h 10m
Waxing Crescent, 43% of the Moon is Illuminated
Apr 17
Waxing Crescent
Apr 18
First Quarter
Apr 25
Full
May 2
Last Quarter
May 9
New

Hourly Weather History & Observations

Time (MDT) Temp. Windchill Dew Point Humidity Pressure Visibility Wind Dir Wind Speed Gust Speed Precip Events Conditions
12:53 AM 50.0 °F - 3.0 °F 15% 29.55 in 10.0 mi ESE 8.1 mph - N/A   Clear
1:53 AM 46.9 °F - 3.9 °F 17% 29.54 in 10.0 mi SSE 3.5 mph - N/A   Clear
2:53 AM 45.0 °F 41.8 °F 5.0 °F 19% 29.53 in 10.0 mi South 5.8 mph - N/A   Clear
3:53 AM 48.9 °F - 8.1 °F 19% 29.51 in 10.0 mi SSE 12.7 mph 20.7 mph N/A   Clear
4:53 AM 51.1 °F - 10.9 °F 20% 29.48 in 10.0 mi SSE 8.1 mph - N/A   Clear
5:53 AM 46.0 °F 41.9 °F 10.0 °F 23% 29.51 in 10.0 mi ESE 8.1 mph - N/A   Clear
6:53 AM 48.0 °F - 12.0 °F 24% 29.51 in 10.0 mi SE 5.8 mph - N/A   Clear
8:53 AM 55.9 °F - 23.0 °F 28% 29.52 in 10.0 mi WSW 13.8 mph 19.6 mph N/A   Clear
9:53 AM 57.0 °F - 26.1 °F 30% 29.52 in 10.0 mi SW 18.4 mph 26.5 mph N/A   Partly Cloudy
10:53 AM 55.9 °F - 25.0 °F 30% 29.52 in 10.0 mi West 18.4 mph 28.8 mph N/A   Scattered Clouds
11:53 AM 55.9 °F - 24.1 °F 29% 29.54 in 10.0 mi WSW 13.8 mph 25.3 mph N/A   Mostly Cloudy
12:53 PM 57.0 °F - 24.1 °F 28% 29.53 in 10.0 mi West 19.6 mph 28.8 mph N/A   Partly Cloudy
1:53 PM 57.0 °F - 24.1 °F 28% 29.51 in 10.0 mi West 20.7 mph 33.4 mph N/A   Scattered Clouds
2:53 PM 50.0 °F - 28.9 °F 44% 29.57 in 10.0 mi West 19.6 mph 31.1 mph N/A   Mostly Cloudy
3:53 PM 46.9 °F - 25.0 °F 42% 29.58 in 10.0 mi West 12.7 mph 29.9 mph 0.00 in   Mostly Cloudy
4:53 PM 45.0 °F 37.6 °F 25.0 °F 46% 29.60 in 10.0 mi West 17.3 mph 34.5 mph N/A   Overcast
5:15 PM 41.0 °F 33.1 °F 28.4 °F 61% 29.78 in 10.0 mi West 15.0 mph 24.2 mph 0.00 in Rain Light Rain
5:53 PM 37.0 °F 28.9 °F 33.1 °F 86% 29.71 in 6.0 mi NNW 12.7 mph - 0.00 in Snow Light Snow
6:32 PM 35.6 °F 27.5 °F 33.8 °F 93% 29.81 in 9.0 mi NNW 11.5 mph - 0.01 in Snow Light Snow
6:46 PM 35.6 °F 26.2 °F 33.8 °F 93% 29.82 in 9.0 mi North 15.0 mph 18.4 mph 0.01 in Snow Light Snow
6:53 PM 35.1 °F 25.2 °F 33.1 °F 92% 29.72 in 8.0 mi North 16.1 mph - 0.01 in Snow Light Snow
7:18 PM 35.6 °F 29.2 °F 33.8 °F 93% 29.82 in 10.0 mi NNE 8.1 mph - 0.00 in   Overcast
7:53 PM 35.1 °F 32.2 °F 32.0 °F 89% 29.72 in 10.0 mi North 3.5 mph - 0.00 in   Overcast
8:53 PM 35.1 °F 31.0 °F 30.0 °F 82% 29.73 in 10.0 mi North 4.6 mph - N/A   Overcast
9:53 PM 36.0 °F 31.1 °F 30.9 °F 82% 29.76 in 10.0 mi West 5.8 mph - N/A   Overcast
10:53 PM 36.0 °F 28.0 °F 26.1 °F 67% 29.79 in 10.0 mi WSW 11.5 mph - N/A   Overcast
11:53 PM 33.1 °F 23.9 °F 16.0 °F 50% 29.81 in 10.0 mi WSW 12.7 mph - N/A   Clear